Weather in Sumarokovo

Russia / Penza Oblast     53°31′29″N   44°46′04″E
temp.,
°C
wind,
m/s
gust,
m/s
humid.,
%
clouds,
%
prec.,
mm/h
press.,
hPa
HPBL,
m
25 july, sun
sun2500:00+15ne257462 0.0 1016146
03:00+12nne22845 0.0 101816
06:00+14ene12765 0.0 1020111
09:00+18ne22565 0.0 10201018
12:00+20ne2243100 0.0 10212220
15:00+20ne3246100 0.0 1021784
18:00+20ene22495 0.0 1022880
21:00+17se2253100 0.0 102231
26 july, mon
mon2600:00+15s126132 0.0 102312
03:00+14sw226695 0.0 102422
06:00+15sw116647 0.0 102445
09:00+20w225038 0.0 1024707
12:00+22nw233836 0.0 10242119
15:00+21wnw355199 0.0 1023229
18:00+21w2347100 0.0 1023228
21:00+18wsw2250100 0.0 102311
27 july, tue
tue2700:00+17wsw345240 0.0 102367
03:00+16w365712 0.0 1023120
06:00+16wnw25655 0.0 1023129
09:00+22wnw34465 0.0 1022612
12:00+25nw45405 0.0 10212090
15:00+24nw4545100 0.0 1020956
18:00+23nw475272 0.0 1019476
21:00+19nw35595 0.0 101967
28 july, wed
wed2800:00+18nw22609 0.0 101930
03:00+17nw236659 0.0 101969
06:00+17nnw23715 0.0 1019103
09:00+23nw225136 0.0 1018608
12:00+26wnw45416 0.0 10171961
15:00+27wnw353775 0.0 10162753
18:00+23s2456100 0.1 101589
21:00+20s3455100 0.1 101466
29 july, thu
thu2900:00+19ssw366198 0.0 101393
03:00+19w61362100 0.1 1013418
06:00+18s41170100 0.1 1011436
09:00+17ssw2789100 1.6 1010220
12:00+26ssw794465 0.3 10071620
15:00+24sw61061100 0.6 1006659
18:00+23ssw597038 0.6 1005429
21:00+20wsw478733 1.9 1005144